Location: Caltech
(34.1382°N, 118.1253°W)
Time: 09:35:46
(UTC-07:00)

SL-08 RB Rocket - Visible Passes

Search period start: 01 April 2015 00:00
Search period end: 11 April 2015 00:00
Orbit: 649 x 687 km, 98.1° (Epoch: 31 March)

Date Brightness Start Highest point End Pass type
(mag) Time Alt. Az. Time Alt. Az. Time Alt. Az.
02 Apr 6.5 22:00:27 10° N 22:00:27 10° N 22:00:30 10° N visible
03 Apr 6.6 22:32:50 11° N 22:32:50 11° N 22:32:59 10° N visible
05 Apr 6.3 21:59:24 12° NNE 21:59:24 12° NNE 21:59:45 10° N visible
06 Apr 6.5 22:31:47 13° N 22:31:47 13° N 22:32:14 10° N visible
07 Apr 6.9 23:04:08 10° NNW 23:04:08 10° NNW 23:04:11 10° NNW visible
08 Apr 6.2 21:58:21 13° NNE 21:58:21 13° NNE 21:58:59 10° N visible
09 Apr 6.3 22:30:42 15° N 22:30:42 15° N 22:31:30 10° N visible
10 Apr 6.7 23:03:03 12° NNW 23:03:03 12° NNW 23:03:26 10° NNW visible
